Tracking 17632 objects as of 1-May-2016
HD Live streaming from Space Station
objects crossing your sky now

GLOBALSTAR M003

Track GLOBALSTAR M003 now!
10-day predictions
GLOBALSTAR M003 is classified as:


NORAD ID: 25165
Int'l Code: 1998-008D
Perigee: 1,629.7 km
Apogee: 1,641.0 km
Inclination: 52.0 °
Period: 118.8 minutes
Semi major axis: 8006 km
RCS: 2.2435 m2 (large)
Launch date: February 14, 1998
Source: Globalstar (GLOB)
Launch site: AIR FORCE EASTERN TEST RANGE (AFETR)
Your satellite tracking list
Your tracking list is empty





NASA's NSSDC Master Catalog

Two Line Element Set (TLE):
1 25165U 98008D   16121.27071572 -.00000077  00000-0  13477-3 0  9996
2 25165  51.9712  45.8164 0007048  53.0767 114.9190 12.11848157828945
Source of the keplerian elements: AFSPC

N2YO: 509